Content
SEND FEEDBACK

Daily
Averages
Monthly
Summary
United States of America

WASHINGTON, DISTRICT OF COLUMBIA


Home > North America > United States > District of Columbia
Elevation: 10 feet     Latitude: 38 51N     Longitude: 077 02W

WEATHER
 
SELECT A DAY
Number of Records: 751,303;   Date Range: 1/1/95 - 9/9/14
 
SHARE

PRINT THIS DATA

[ ← Previous Day ]
WEATHER ALMANAC - FEBRUARY 13, 2013
[ Next Day → ]
[ °C ]   °F
Weather ElementAverageHighLow
Temperature39 °F48 °F (1:52 pm)35.1 °F (5:52 am)
Dewpoint31.9 °F36 °F (4:52 pm)26.1 °F (2:52 am)
Humidity77.1 %93 % (10:14 pm)50 % (11:52 am)
Barometer29.77 in29.96 in (1:52 am)29.67 in (4:22 pm)
Wind Speed7.9 mph12.7 mph (5:52 pm)
Weather ElementAverage
Visibility6.7 mi
Wind DirectionSE (135.9 °)

Weather ElementTotal
Precipitation0.40 in
Heating Degree Days23.5 (Base 65)
Averaged from 41 records on February 13, 2013
WEATHER CONDITIONS BREAKOUT
WIND DIRECTION BREAKOUT
Weather ElementAverageHighLow
Temperature39 °F48 °F (1:52 pm)35.1 °F (5:52 am)
Dewpoint31.9 °F36 °F (4:52 pm)26.1 °F (2:52 am)
Humidity77.1 %93 % (10:14 pm)50 % (11:52 am)
Barometer29.77 in29.96 in (1:52 am)29.67 in (4:22 pm)
Wind Speed7.9 mph12.7 mph (5:52 pm)
Weather ElementAverage
Visibility6.7 mi
Wind DirectionSE (135.9 °)

Weather ElementTotal
Precipitation0.40 in
Heating Degree Days23.5 (Base 65)
Averaged from 41 records on February 13, 2013
WEATHER CONDITIONS BREAKOUT
WIND DIRECTION BREAKOUT
WEATHER BY HOUR - FEBRUARY 13, 2013
[ °C ]   °F
Local TimeTemperatureDewpointHumidityBarometerVisibilityWind DirectionWind SpeedGust SpeedPrecipitationEventsConditions
1:52 AM37.9 °F28.0 °F68 %29.96 in10.0 miNE (50°)8.1 mphPartly Cloudy
2:52 AM37.0 °F26.1 °F65 %29.94 in10.0 miNNE (30°)4.6 mphPartly Cloudy
3:52 AM36.0 °F26.1 °F67 %29.91 in10.0 miNNE (30°)6.9 mphPartly Cloudy
4:52 AM36.0 °F26.1 °F67 %29.91 in10.0 miNE (50°)4.6 mphPartly Cloudy
5:52 AM35.1 °F26.1 °F70 %29.91 in10.0 miNNE (20°)9.2 mphMostly Cloudy
6:52 AM36.0 °F27.0 °F70 %29.89 in10.0 miNE (50°)8.1 mphMostly Cloudy
7:52 AM37.0 °F27.0 °F67 %29.91 in10.0 miCalmOvercast
8:52 AM39.0 °F27.0 °F62 %29.90 in10.0 miENE (60°)6.9 mphOvercast
9:52 AM41.0 °F26.1 °F55 %29.88 in10.0 miENE (70°)5.8 mphOvercast
10:52 AM42.1 °F27.0 °F55 %29.86 in10.0 miEast (90°)4.6 mphOvercast
11:52 AM46.0 °F28.0 °F50 %29.82 in10.0 miSE (130°)5.8 mphMostly Cloudy
12:52 PM46.9 °F30.0 °F52 %29.76 in10.0 miSE (130°)8.1 mphOvercast
1:52 PM48.0 °F30.0 °F50 %29.74 in10.0 miNE (40°)4.6 mphOvercast
2:52 PM46.0 °F33.1 °F61 %29.69 in9.0 miESE (120°)5.8 mph0.00 inRainLight Rain
3:52 PM44.1 °F35.1 °F71 %29.68 in10.0 miENE (70°)3.5 mph0.00 inOvercast
4:22 PM42.8 °F35.6 °F76 %29.67 in3.0 miEast (100°)8.1 mph0.00 inRainLight Rain
4:25 PM42.8 °F35.6 °F76 %29.68 in3.0 miEast (80°)6.9 mph0.00 inRainLight Rain
4:32 PM42.8 °F35.6 °F76 %29.67 in3.0 miENE (70°)4.6 mph0.01 inRainLight Rain
4:41 PM42.8 °F35.6 °F76 %29.67 in3.0 miENE (60°)5.8 mph0.01 inRainLight Rain
4:52 PM43.0 °F36.0 °F76 %29.68 in3.0 miEast (80°)4.6 mph0.02 inRainLight Rain
5:52 PM39.9 °F35.1 °F83 %29.68 in4.0 miNNE (30°)12.7 mph0.05 inRainLight Rain
6:43 PM37.4 °F33.8 °F87 %29.69 in5.0 miNE (40°)10.4 mph0.03 inRainLight Rain
6:48 PM37.4 °F33.8 °F87 %29.69 in5.0 miNE (40°)9.2 mph0.03 inRainLight Rain
6:49 PM37.9 °F34.0 °F86 %29.69 in5.0 miNNE (30°)8.1 mph0.03 inRainLight Rain
6:51 PM37.4 °F33.8 °F87 %29.69 in5.0 miNNE (20°)9.2 mph0.00 inRainLight Rain
7:16 PM37.4 °F33.8 °F87 %29.70 in5.0 miNNE (20°)11.5 mph0.01 inRainLight Rain
7:19 PM37.4 °F33.8 °F87 %29.70 in5.0 miNNE (20°)10.4 mph0.01 inRainLight Rain
7:22 PM37.4 °F33.8 °F87 %29.71 in5.0 miNNE (20°)10.4 mph0.02 inRainLight Rain
7:36 PM37.4 °F33.8 °F87 %29.71 in5.0 miNorth (10°)11.5 mph0.02 inRainLight Rain
7:52 PM37.9 °F34.0 °F86 %29.72 in5.0 miNorth (360°)8.1 mph0.03 inRainLight Rain
8:22 PM37.4 °F33.8 °F87 %29.72 in5.0 miNNW (340°)11.5 mph0.02 inRainLight Rain
8:52 PM37.0 °F34.0 °F89 %29.72 in6.0 miNNW (340°)8.1 mph0.03 inRainLight Rain
9:43 PM35.6 °F32.0 °F87 %29.75 in5.0 miNNW (330°)11.5 mph0.02 inRain-SnowLight Rain
9:52 PM36.0 °F33.1 °F89 %29.75 in5.0 miNNW (330°)11.5 mph0.02 inRain-SnowLight Rain
10:14 PM35.6 °F33.8 °F93 %29.76 in6.0 miNNW (330°)9.2 mph0.01 inRain-SnowLight Rain
10:21 PM35.6 °F33.8 °F93 %29.76 in6.0 miNNW (330°)12.7 mph0.01 inRain-SnowLight Rain
10:40 PM35.6 °F33.8 °F93 %29.77 in6.0 miNNW (340°)9.2 mph0.01 inOvercast
10:52 PM36.0 °F33.1 °F89 %29.77 in6.0 miNNW (340°)8.1 mph0.01 inOvercast
11:09 PM35.6 °F33.8 °F93 %29.78 in6.0 miNW (320°)8.1 mphOvercast
11:24 PM37.4 °F33.8 °F87 %29.77 in6.0 miNNW (330°)8.1 mphOvercast
11:52 PM37.0 °F33.1 °F86 %29.79 in6.0 miNW (320°)8.1 mphOvercast
Hourly data recorded from KDCA, located miles away from Washington, District of Columbia







STORIES FROM OUR PARTNERS